{"data":{"norad_id":50850,"epoch":"2026-09-20T04:44:18.727008Z","epoch_age_seconds":74619,"freshness":"FRESH","line1":"1 50850U 22001AZ  26263.19743897  .00019246  00000+0  75777-3 0  9997","line2":"2 50850  53.1546 336.6301 0001860 334.8583  25.2325 15.25656254260856","mean_motion":15.25656254,"eccentricity":0.000186,"inclination_deg":53.1546,"raan_deg":336.6301,"arg_perigee_deg":334.8583,"mean_anomaly_deg":25.2325,"bstar":0.00075777,"rev_number":26085,"period_min":94.38561250115,"perigee_km":487.53828248043,"apogee_km":490.0927888237,"semimajor_km":6866.9525356521,"source":"CELESTRAK","updated_at":"2026-09-20T09:00:39.583350Z"}}